Wind_Speed
23 24 24 24 24 24 25 24 23 22 21 19 19 16 18 19 19 22 32 27 18 18 13 11 16 17 18 15 26 26 7 7 7 0 6 26 21 26 22 36 13 14 35 37 34
24 24 25 25 25 26 26 27 27 24 21 20 19 15 15 18 21 31 32 24 24 21 21 17 17 20 25 26 14 11 3 8 5 6 6 5 7 27 28 28 28 37 35 38 41
24 25 26 27 27 27 27 28 28 25 21 20 19 13 13 14 20 24 6 17 24 24 22 21 16 22 24 26 24 15 8 8 5 8 9 12 12 3 30 18 42 42 42 42 37
26 27 27 27 28 28 28 27 27 25 23 20 17 15 13 9 4 4 2 5 20 26 23 21 22 26 16 18 30 17 24 11 9 5 5 12 1 9 32 21 41 46 49 44 36
27 28 28 28 28 28 28 27 26 24 23 21 17 13 10 10 27 9 5 4 16 29 30 27 28 25 18 18 23 17 14 22 14 4 29 22 10 2 33 41 42 44 42 38 38
29 29 29 29 29 29 28 26 26 25 21 19 17 13 12 10 17 12 18 9 15 33 30 28 20 26 17 23 17 20 20 20 17 17 24 16 7 10 32 41 41 43 43 37 39
31 31 30 29 29 29 27 25 26 26 21 19 18 15 16 34 8 6 18 15 13 29 32 30 27 25 29 12 32 27 16 17 16 24 9 14 5 13 35 47 43 40 43 41 41
31 31 31 30 30 27 25 27 25 29 22 17 15 12 15 16 12 22 26 21 13 17 29 25 26 29 29 22 23 17 17 14 14 15 18 25 14 8 38 43 42 41 42 43 43
31 31 31 30 28 24 23 28 31 31 11 10 1 7 16 7 20 26 27 29 17 20 17 22 26 30 25 14 13 11 13 12 9 25 8 28 12 21 34 37 40 41 41 42 44
33 32 32 30 28 21 24 26 33 11 15 12 2 8 14 7 9 21 28 23 26 20 25 24 19 15 15 12 16 12 7 10 15 17 16 9 8 23 32 35 39 37 36 35 45
36 35 34 30 28 21 27 32 32 8 10 23 29 28 57 13 15 22 26 24 25 27 17 26 11 21 23 18 12 13 17 15 13 15 10 14 11 29 37 28 34 34 33 36 35
36 35 33 29 23 17 22 27 24 24 29 33 42 42 46 38 20 16 27 27 23 21 16 12 24 19 15 15 19 19 21 19 14 16 11 10 12 14 33 36 44 34 30 34 37
37 35 33 30 18 14 16 26 26 28 13 31 21 24 33 23 27 43 17 34 16 22 24 24 12 20 20 21 23 22 22 18 15 15 17 16 16 10 23 35 37 53 59 44 46
38 35 34 33 12 19 19 30 31 24 5 9 2 12 17 20 10 32 33 29 21 23 23 25 20 25 25 25 22 21 19 21 21 13 6 2 3 7 14 23 26 40 43 46 43
37 36 30 17 23 21 30 35 27 23 5 10 17 15 43 5 18 19 35 30 25 22 20 24 23 28 26 26 23 16 14 22 23 15 7 18 11 13 10 16 29 30 50 44 43
38 37 23 9 11 19 24 28 27 2 5 9 21 22 26 28 26 28 21 31 27 24 22 25 20 19 27 23 19 15 17 15 17 13 14 11 17 17 13 12 26 35 45 48 41
39 29 10 8 12 21 27 27 4 4 10 11 21 22 21 20 26 25 22 18 18 20 25 19 30 24 18 21 21 19 11 9 12 13 13 10 7 10 11 13 18 29 44 52 53
40 24 13 9 11 17 22 10 5 9 12 17 18 18 16 22 19 27 29 18 22 23 5 20 20 31 22 22 16 22 20 10 15 9 10 8 10 9 12 8 24 36 49 54 51
39 24 12 12 8 17 16 4 6 10 14 16 19 16 18 22 17 22 21 15 11 19 23 14 28 16 28 20 20 19 20 12 3 6 3 3 7 13 17 15 9 15 38 51 53
40 26 6 6 14 15 5 11 16 13 14 12 14 9 18 15 15 15 12 19 27 26 32 26 17 20 21 25 21 18 12 13 9 9 10 10 12 15 15 20 13 11 24 42 48
30 16 24 19 17 19 7 7 14 21 19 12 17 13 12 12 11 14 8 25 16 29 30 20 13 30 16 25 28 12 12 15 6 6 6 6 10 11 22 22 21 12 23 35 43
19 5 18 33 9 10 9 17 20 17 15 11 12 15 12 18 12 12 21 14 33 30 28 18 8 17 27 15 24 16 15 15 10 11 5 4 11 6 7 26 22 19 26 32 45
16 11 20 21 5 7 16 17 21 16 9 6 5 6 12 15 6 7 13 14 16 18 12 15 6 5 18 16 20 28 22 18 8 6 9 10 10 4 11 15 27 20 29 26 43
9 4 11 14 22 15 13 13 17 27 20 3 5 10 10 8 5 9 10 10 24 26 37 28 13 17 11 15 7 12 24 21 16 10 10 16 5 10 11 10 9 17 21 35 31
6 5 8 5 12 16 15 13 14 10 15 18 5 7 7 7 8 7 15 16 18 23 18 10 10 16 14 12 9 15 25 23 20 16 15 12 8 8 1 7 7 17 18 22 27
9 5 5 14 15 16 11 10 12 17 15 14 15 9 7 7 9 14 6 9 7 13 14 16 8 15 5 9 11 17 18 26 20 19 16 10 9 8 8 21 21 25 24 25 20
9 9 5 5 7 9 7 10 13 21 12 26 23 9 9 11 13 18 24 16 16 6 13 14 9 9 4 4 5 5 17 17 20 18 19 17 8 7 6 10 15 25 24 23 22
Wind_Direction
4 0 356 353 350 347 342 337 333 328 322 318 310 300 291 283 276 265 255 246 247 226 202 192 210 192 206 218 223 208 169 254 235 167 334 22 97 123 123 135 147 179 145 146 152
3 359 355 352 349 346 342 337 335 329 322 317 313 304 292 287 283 269 264 258 232 209 210 207 204 199 216 215 233 187 141 225 239 354 328 299 277 131 115 107 104 118 137 145 147
-0 357 353 348 345 343 340 336 333 331 323 316 313 299 296 288 300 286 279 233 215 211 217 212 204 204 214 226 233 202 186 236 262 250 306 257 339 250 120 124 140 143 148 152 155
0 357 353 349 345 343 339 334 331 329 323 316 305 297 286 258 240 193 32 209 201 204 206 202 220 215 219 223 230 225 217 197 217 8 5 250 91 306 141 155 149 148 157 157 161
358 355 352 349 347 343 339 336 333 330 323 316 304 293 266 234 239 194 244 265 201 198 203 200 220 221 219 224 234 239 177 207 227 153 196 223 178 327 132 144 148 148 157 162 164
356 354 352 350 350 347 343 339 331 326 322 317 299 284 237 245 276 237 246 251 214 194 202 203 218 219 228 235 236 245 192 191 171 307 190 216 147 135 139 141 147 155 161 166 173
356 353 351 348 348 348 350 342 332 324 318 312 296 279 242 243 218 186 225 239 232 209 201 206 209 229 228 252 242 255 259 188 181 176 190 229 164 160 154 150 154 162 165 171 179
355 353 351 347 347 350 357 353 344 335 314 305 285 257 254 283 228 228 193 223 228 217 215 210 218 242 256 249 261 255 256 237 192 226 198 193 201 189 165 153 157 167 175 178 182
354 353 350 348 349 352 -0 358 344 333 331 319 204 229 265 288 225 195 193 208 205 205 221 215 225 237 250 240 255 255 245 230 198 211 189 190 149 183 172 157 164 172 182 185 186
354 353 349 349 348 352 348 356 349 4 21 3 272 289 258 254 235 223 189 197 203 201 201 209 224 229 236 221 222 232 232 235 219 236 214 221 178 170 181 177 167 172 186 192 185
353 350 347 347 345 358 347 357 2 339 323 286 269 261 286 257 284 216 205 211 210 197 209 202 212 222 218 224 235 235 243 230 243 227 215 211 215 171 188 158 143 172 194 194 195
350 346 343 342 343 352 346 353 351 315 302 280 261 258 259 261 281 253 200 197 219 204 205 198 225 222 216 218 233 235 244 251 231 239 224 240 229 166 180 164 161 171 210 198 196
349 343 340 336 342 357 347 344 338 330 298 304 266 249 252 251 236 254 234 204 212 209 205 209 219 218 214 219 221 231 234 245 244 243 243 187 221 214 165 164 161 166 196 201 190
349 341 335 333 343 345 342 342 333 329 308 286 349 25 352 229 264 246 236 219 224 222 211 227 228 200 223 220 219 223 233 245 253 260 187 234 251 237 176 174 167 172 171 202 197
344 341 324 337 318 330 342 331 327 318 303 16 5 342 355 138 304 210 230 242 213 219 208 217 197 226 212 221 217 227 227 238 250 258 256 203 211 231 202 192 175 172 180 195 194
340 339 319 348 325 344 331 327 321 232 246 325 13 355 349 339 328 316 267 237 227 231 234 230 211 220 226 218 224 221 222 247 246 248 253 238 206 235 204 186 169 179 181 191 180
340 341 311 323 342 352 344 327 302 237 318 360 4 348 331 329 341 353 339 240 215 217 234 237 226 221 227 220 203 218 205 229 236 229 233 230 230 226 210 209 185 185 178 180 185
341 337 310 297 344 344 326 309 253 304 349 355 351 327 354 354 344 343 339 326 225 228 206 229 234 216 215 226 195 208 216 209 216 210 232 235 241 250 261 239 225 186 173 182 187
344 343 344 332 310 323 314 287 307 7 4 347 339 339 343 342 343 347 335 291 322 234 232 219 241 204 227 212 218 204 217 216 260 211 247 206 252 261 259 269 210 211 178 179 190
345 346 354 348 323 308 280 264 314 4 348 330 323 343 334 355 351 337 328 292 340 349 350 246 269 224 220 229 230 214 175 215 213 201 221 234 218 231 234 246 241 212 197 187 181
357 327 24 358 332 301 253 293 310 336 347 346 329 317 318 342 345 325 276 308 346 338 331 313 243 250 240 209 219 200 195 202 186 193 183 208 238 226 223 222 231 218 195 194 177
351 308 328 329 330 338 355 340 343 333 343 9 348 341 346 333 297 302 287 278 320 328 317 290 293 236 240 253 211 225 212 197 206 228 223 199 258 317 265 209 209 217 218 192 181
318 294 337 14 27 347 338 335 325 349 355 30 317 310 323 314 337 333 328 310 317 313 323 327 321 270 248 253 265 214 202 213 182 149 218 227 259 265 313 199 194 196 204 181 175
316 309 349 340 356 353 335 322 337 337 339 34 296 295 323 327 360 288 285 294 314 296 302 308 255 243 256 231 224 220 204 201 204 202 213 240 234 300 330 156 143 163 170 198 166
337 345 6 318 332 317 308 322 344 326 317 313 272 319 338 300 292 297 324 330 316 302 309 298 265 256 265 270 278 269 201 195 206 210 198 233 184 216 332 48 132 163 157 179 173
324 351 337 299 311 309 314 322 321 320 344 312 318 324 308 267 284 310 294 336 306 316 321 306 283 324 276 288 277 285 244 194 200 212 224 246 224 208 168 96 78 88 102 93 114
314 288 300 272 302 309 308 327 310 306 307 317 302 295 261 282 293 272 287 246 247 235 303 287 320 330 308 316 292 301 251 197 203 197 211 223 211 152 137 130 129 112 99 92 87
Height
1516 1513 1509 1506 1502 1499 1495 1492 1489 1486 1483 1481 1480 1478 1476 1474 1474 1473 1466 1470 1474 1478 1479 1483 1487 1491 1496 1497 1499 1499 1516 1512 1504 1489 1489 1482 1470 1479 1482 1488 1494 1497 1502 1513 1519
1516 1512 1508 1504 1501 1497 1493 1489 1486 1483 1480 1478 1476 1475 1473 1470 1468 1460 1460 1465 1469 1473 1476 1479 1484 1489 1491 1491 1494 1496 1508 1500 1486 1488 1487 1485 1484 1478 1484 1492 1499 1503 1513 1516 1521
1516 1511 1507 1503 1499 1495 1491 1487 1482 1479 1477 1474 1472 1471 1471 1469 1465 1449 1451 1454 1463 1468 1471 1477 1482 1486 1488 1488 1486 1486 1496 1485 1483 1488 1488 1482 1481 1479 1484 1495 1491 1499 1509 1516 1521
1515 1511 1507 1502 1497 1493 1488 1484 1479 1476 1473 1471 1468 1468 1467 1467 1466 1450 1451 1452 1457 1464 1469 1473 1477 1481 1481 1481 1479 1482 1478 1482 1484 1486 1484 1477 1475 1474 1476 1488 1492 1497 1504 1512 1518
1515 1510 1505 1500 1495 1490 1485 1481 1476 1472 1469 1467 1465 1464 1463 1462 1445 1448 1449 1452 1454 1459 1462 1467 1471 1474 1475 1474 1473 1471 1473 1474 1475 1483 1480 1474 1469 1479 1477 1485 1493 1499 1509 1514 1518
1514 1509 1503 1498 1493 1488 1482 1478 1473 1469 1466 1463 1460 1460 1459 1457 1439 1443 1446 1449 1451 1454 1458 1463 1464 1468 1469 1469 1467 1463 1466 1468 1468 1468 1477 1476 1470 1478 1485 1488 1496 1502 1507 1514 1517
1512 1507 1502 1496 1490 1485 1480 1475 1470 1465 1463 1459 1456 1455 1452 1435 1438 1441 1443 1445 1449 1450 1454 1458 1462 1465 1466 1464 1462 1460 1463 1468 1471 1468 1472 1484 1479 1477 1481 1479 1492 1503 1507 1511 1515
1511 1506 1500 1494 1489 1483 1478 1472 1466 1462 1457 1455 1452 1450 1439 1431 1432 1435 1439 1443 1446 1449 1453 1458 1461 1463 1463 1462 1458 1458 1457 1469 1457 1463 1464 1476 1484 1473 1478 1481 1488 1498 1505 1507 1511
1511 1505 1499 1494 1488 1483 1477 1471 1464 1457 1453 1451 1451 1450 1434 1428 1426 1428 1434 1439 1443 1448 1451 1457 1460 1460 1460 1461 1466 1457 1470 1463 1456 1448 1447 1459 1469 1468 1470 1479 1483 1491 1500 1504 1509
1510 1504 1497 1492 1487 1482 1476 1470 1463 1457 1455 1452 1452 1454 1429 1425 1426 1428 1431 1436 1441 1445 1451 1453 1455 1456 1454 1458 1472 1467 1464 1454 1455 1442 1443 1447 1452 1464 1468 1471 1475 1488 1496 1499 1502
1508 1502 1496 1491 1485 1481 1473 1468 1466 1462 1459 1461 1453 1441 1423 1424 1422 1422 1427 1433 1436 1440 1442 1444 1452 1448 1443 1446 1449 1450 1450 1450 1440 1434 1438 1443 1446 1454 1465 1470 1474 1482 1495 1498 1498
1507 1501 1495 1490 1485 1481 1478 1475 1476 1474 1441 1437 1429 1430 1425 1426 1431 1416 1425 1428 1428 1429 1435 1442 1439 1433 1438 1442 1446 1445 1449 1446 1434 1427 1433 1443 1444 1438 1452 1456 1463 1482 1492 1499 1502
1506 1500 1494 1488 1484 1481 1479 1477 1474 1470 1460 1420 1416 1420 1417 1422 1419 1413 1419 1419 1420 1424 1425 1428 1420 1431 1431 1437 1442 1441 1443 1442 1442 1426 1423 1434 1444 1439 1442 1451 1463 1468 1477 1489 1488
1506 1499 1493 1485 1486 1480 1478 1473 1471 1468 1468 1433 1415 1421 1418 1415 1414 1410 1410 1417 1418 1418 1420 1419 1419 1420 1426 1429 1431 1443 1427 1430 1430 1437 1456 1429 1475 1445 1435 1446 1456 1469 1471 1472 1485
1506 1501 1493 1490 1484 1481 1476 1472 1469 1468 1481 1422 1426 1424 1419 1419 1411 1400 1404 1409 1407 1411 1416 1407 1410 1416 1422 1416 1419 1429 1425 1427 1427 1437 1442 1437 1456 1438 1429 1439 1447 1451 1455 1463 1473
1503 1497 1489 1489 1485 1481 1477 1472 1468 1474 1467 1432 1432 1431 1429 1420 1414 1407 1403 1406 1406 1408 1401 1404 1401 1404 1406 1409 1412 1418 1425 1428 1426 1435 1456 1441 1443 1442 1431 1427 1431 1438 1446 1454 1464
1500 1493 1488 1486 1484 1481 1476 1473 1474 1471 1436 1439 1441 1439 1436 1429 1420 1423 1415 1399 1403 1416 1409 1402 1397 1394 1394 1409 1406 1414 1431 1458 1462 1455 1457 1434 1441 1437 1409 1411 1412 1422 1431 1439 1447
1497 1490 1487 1484 1482 1480 1480 1477 1480 1450 1447 1443 1447 1444 1442 1438 1428 1429 1428 1418 1390 1395 1407 1411 1411 1385 1385 1393 1407 1409 1417 1439 1465 1458 1449 1429 1441 1423 1402 1402 1405 1408 1418 1428 1436
1494 1486 1482 1483 1481 1482 1481 1480 1465 1460 1457 1455 1448 1447 1445 1445 1442 1441 1441 1428 1405 1391 1403 1404 1397 1376 1379 1382 1389 1404 1414 1410 1432 1430 1447 1433 1420 1406 1399 1396 1399 1403 1411 1418 1427
1493 1484 1483 1482 1481 1480 1479 1477 1468 1460 1459 1457 1461 1455 1456 1454 1457 1458 1451 1427 1428 1425 1416 1385 1408 1375 1372 1379 1376 1384 1393 1424 1420 1459 1462 1438 1430 1420 1404 1395 1393 1397 1401 1404 1413
1497 1489 1483 1481 1478 1476 1476 1468 1467 1463 1461 1460 1458 1457 1458 1457 1461 1466 1454 1438 1436 1431 1426 1414 1393 1377 1374 1373 1378 1382 1393 1396 1411 1427 1455 1458 1427 1384 1387 1383 1383 1386 1392 1399 1407
1502 1495 1484 1480 1479 1473 1473 1472 1468 1464 1461 1461 1463 1460 1460 1460 1458 1463 1459 1456 1449 1454 1443 1423 1405 1383 1375 1356 1357 1368 1378 1390 1410 1431 1420 1430 1410 1368 1366 1364 1372 1377 1381 1389 1398
1505 1495 1487 1481 1485 1483 1480 1477 1469 1463 1463 1466 1468 1465 1464 1464 1465 1467 1462 1455 1454 1455 1442 1430 1409 1395 1377 1372 1362 1363 1364 1373 1390 1403 1423 1429 1410 1367 1360 1351 1361 1370 1376 1384 1393
1507 1497 1493 1489 1491 1490 1485 1478 1473 1471 1470 1467 1467 1465 1461 1462 1464 1468 1459 1455 1452 1449 1444 1439 1407 1405 1388 1369 1363 1365 1359 1366 1382 1403 1409 1400 1398 1380 1366 1355 1361 1368 1374 1380 1387
1510 1505 1505 1498 1495 1495 1488 1482 1481 1478 1472 1465 1467 1463 1467 1465 1460 1460 1456 1452 1446 1442 1438 1438 1405 1386 1369 1357 1357 1357 1355 1359 1372 1382 1397 1392 1396 1379 1367 1362 1362 1366 1373 1380 1386
1513 1511 1508 1505 1501 1494 1486 1483 1480 1476 1476 1467 1462 1461 1463 1461 1456 1458 1449 1449 1446 1440 1441 1426 1407 1383 1365 1354 1355 1359 1346 1346 1359 1367 1378 1378 1383 1367 1364 1364 1368 1373 1378 1383 1387
1511 1509 1508 1504 1500 1495 1487 1486 1483 1480 1471 1469 1464 1456 1456 1450 1450 1442 1439 1438 1437 1438 1441 1432 1410 1398 1380 1358 1359 1374 1355 1347 1351 1356 1366 1382 1370 1365 1369 1369 1370 1377 1383 1387 1391